TimeCDT,TemperatureF,Dew PointF,Humidity,Sea Level PressureIn,VisibilityMPH,Wind Direction,Wind SpeedMPH,Gust SpeedMPH,PrecipitationIn,Events,Conditions,WindDirDegrees,DateUTC
12:53 AM,62.1,52.0,70,30.09,10.0,South,5.8,-,N/A,,Clear,190,2012-10-04 05:53:00
1:53 AM,61.0,53.1,75,30.10,10.0,SSW,4.6,-,N/A,,Clear,200,2012-10-04 06:53:00
2:53 AM,59.0,52.0,78,30.11,10.0,South,3.5,-,N/A,,Clear,190,2012-10-04 07:53:00
3:53 AM,57.0,52.0,83,30.13,10.0,Calm,Calm,-,N/A,,Clear,0,2012-10-04 08:53:00
4:53 AM,53.1,51.1,93,30.15,9.0,Calm,Calm,-,N/A,,Clear,0,2012-10-04 09:53:00
5:53 AM,52.0,48.9,89,30.16,7.0,Calm,Calm,-,N/A,,Clear,0,2012-10-04 10:53:00
6:53 AM,52.0,48.9,89,30.18,7.0,Calm,Calm,-,N/A,,Clear,0,2012-10-04 11:53:00
7:53 AM,53.1,51.1,93,30.19,8.0,Calm,Calm,-,N/A,,Clear,0,2012-10-04 12:53:00
8:53 AM,64.0,55.0,73,30.20,10.0,SSW,6.9,-,N/A,,Clear,210,2012-10-04 13:53:00
9:53 AM,68.0,55.9,65,30.20,10.0,SSW,9.2,-,N/A,,Clear,210,2012-10-04 14:53:00
10:53 AM,71.1,55.9,59,30.19,10.0,SW,11.5,-,N/A,,Clear,220,2012-10-04 15:53:00
11:53 AM,73.9,55.9,53,30.18,10.0,South,9.2,-,N/A,,Clear,180,2012-10-04 16:53:00
12:53 PM,75.9,55.0,48,30.17,10.0,South,8.1,-,N/A,,Clear,190,2012-10-04 17:53:00
1:53 PM,77.0,52.0,42,30.15,10.0,SSW,10.4,-,N/A,,Clear,210,2012-10-04 18:53:00
2:53 PM,77.0,53.1,43,30.14,10.0,SSW,8.1,-,N/A,,Clear,200,2012-10-04 19:53:00
3:53 PM,77.0,52.0,42,30.13,10.0,South,6.9,-,N/A,,Clear,190,2012-10-04 20:53:00
4:53 PM,77.0,52.0,42,30.12,10.0,South,6.9,-,N/A,,Clear,170,2012-10-04 21:53:00
5:53 PM,75.9,54.0,46,30.12,10.0,SSE,3.5,-,N/A,,Clear,160,2012-10-04 22:53:00
6:53 PM,71.1,55.9,59,30.13,10.0,Calm,Calm,-,N/A,,Clear,0,2012-10-04 23:53:00
7:53 PM,66.9,55.9,68,30.14,10.0,Calm,Calm,-,N/A,,Clear,0,2012-10-05 00:53:00
8:53 PM,66.0,55.9,70,30.14,10.0,Calm,Calm,-,N/A,,Clear,0,2012-10-05 01:53:00
9:53 PM,64.9,55.0,70,30.14,10.0,Calm,Calm,-,N/A,,Clear,0,2012-10-05 02:53:00
10:53 PM,61.0,55.0,81,30.16,10.0,Calm,Calm,-,N/A,,Overcast,0,2012-10-05 03:53:00
11:53 PM,68.0,54.0,61,30.14,10.0,SSW,5.8,-,N/A,,Mostly Cloudy,200,2012-10-05 04:53:00